Probability
0 0 0 0 0 0 0 0 0 0 0 0 0 0 0 0 0 0 0 0 0 0 0 0 0 0 0 0 0 0 0 0 0 0 0 0 0 1 3 4 4 3 3 2
0 0 0 0 0 0 0 0 0 0 0 0 0 0 0 0 0 0 0 0 0 0 0 0 0 0 0 0 0 0 0 0 0 0 0 1 1 2 2 3 3 3 3 3
0 0 0 0 0 0 0 0 0 0 0 0 0 0 0 0 0 0 0 0 0 0 0 0 0 0 0 0 0 0 0 0 0 0 1 1 1 1 1 1 3 3 3 3
0 0 0 0 0 0 0 0 0 0 0 0 0 0 0 0 0 0 0 0 0 0 0 0 0 0 0 0 0 0 0 0 0 0 1 1 1 0 0 1 2 2 2 1
0 0 0 0 0 0 0 0 0 0 0 0 0 0 0 0 0 0 0 0 0 0 0 0 0 0 0 0 0 0 0 0 0 0 0 0 0 0 0 0 1 1 1 0
0 0 0 0 0 0 0 0 0 0 0 0 0 0 0 0 0 0 0 0 0 0 0 0 0 0 0 0 0 0 0 0 0 0 0 0 0 0 0 0 0 0 0 0
0 0 0 0 0 0 0 0 0 0 0 0 0 0 0 0 0 0 0 0 0 0 0 0 0 0 0 0 0 0 0 0 0 0 0 0 0 0 0 0 0 0 0 0
0 0 0 0 0 0 0 0 0 0 0 0 0 0 0 0 0 0 0 0 0 0 0 0 0 0 0 0 0 0 0 0 0 0 0 0 0 0 0 0 0 0 0 0
0 0 0 0 0 0 0 0 0 0 0 0 0 0 0 0 0 0 0 0 0 0 0 0 0 0 0 0 0 0 0 0 0 0 0 0 0 0 0 0 0 0 0 0
0 0 0 0 0 0 0 0 0 0 0 0 0 0 0 0 0 0 0 0 0 0 0 0 0 0 0 0 0 0 0 0 0 0 0 0 0 0 0 0 0 0 0 0
0 0 0 0 0 0 0 0 0 0 0 0 0 0 0 0 0 0 0 0 0 0 0 0 0 0 0 0 0 0 0 0 0 0 0 0 0 0 0 0 0 0 0 0
0 0 0 0 0 0 0 0 0 0 0 0 0 0 0 0 0 0 0 0 0 0 0 0 0 0 0 0 0 0 0 0 0 0 0 0 0 0 0 0 0 0 0 0
0 0 0 0 0 0 0 0 0 0 0 0 0 0 0 0 0 0 0 0 0 0 0 0 0 0 0 0 0 0 0 0 0 0 0 0 0 0 0 0 0 0 0 0
0 0 0 0 0 0 0 0 0 0 0 0 0 0 0 0 0 0 0 0 0 0 0 0 0 0 0 0 0 0 0 0 0 0 0 0 0 0 0 0 0 0 0 0
0 0 0 0 0 0 0 0 0 0 0 0 0 0 0 0 0 0 0 0 0 0 0 0 0 0 0 0 0 0 0 0 0 0 0 0 0 0 0 0 0 0 0 0
0 0 0 0 0 0 0 0 0 0 0 0 0 0 0 0 0 0 0 0 0 0 0 0 0 0 0 0 0 0 0 0 0 0 0 0 0 0 0 0 0 0 0 0
0 0 0 0 0 0 0 0 0 0 0 0 0 0 0 0 0 0 0 0 0 0 0 0 0 0 0 0 0 0 0 0 0 0 0 0 0 0 0 0 0 0 0 0
0 0 0 0 0 0 0 0 0 0 0 0 0 0 0 0 0 0 0 0 0 0 0 0 0 0 0 0 0 0 0 0 0 0 0 0 0 0 0 0 0 0 0 0
0 0 0 0 0 0 0 0 0 0 0 0 0 0 0 0 0 0 0 0 0 0 0 0 0 0 0 0 0 0 0 0 0 0 0 0 0 0 0 0 0 0 0 0
0 0 0 0 0 0 0 0 0 0 0 0 0 0 0 0 0 0 0 0 0 0 0 0 0 0 0 0 0 0 0 0 0 0 0 0 0 0 0 0 0 0 0 0
0 0 0 0 0 0 0 0 0 0 0 0 0 0 0 0 0 0 0 0 0 0 0 0 0 0 0 0 0 0 0 0 0 0 0 0 0 0 0 0 0 0 0 0
0 0 0 0 0 0 0 0 0 0 0 0 0 0 0 0 0 0 0 0 0 0 0 0 0 0 0 0 0 0 0 0 0 0 0 0 0 0 0 0 0 0 0 0
0 0 0 0 0 0 0 0 0 0 0 0 0 0 0 0 0 0 0 0 0 0 0 0 0 0 0 0 0 0 0 0 0 0 0 0 0 0 0 0 0 0 0 0
0 0 0 0 0 0 0 0 0 0 0 0 0 0 0 0 0 0 0 0 0 0 0 0 0 0 0 0 0 0 0 0 0 0 0 0 0 0 0 0 0 0 0 0
0 0 0 0 0 0 0 0 0 0 0 0 0 0 0 0 0 0 0 0 0 0 0 0 0 0 0 0 0 0 0 0 0 0 0 0 0 0 0 0 0 0 0 0
0 0 0 0 0 0 0 0 0 0 0 0 0 0 0 0 0 0 0 0 0 0 0 0 0 0 0 0 0 0 0 0 0 0 0 0 0 0 0 0 0 0 0 0
0 0 0 0 0 0 0 0 0 0 0 0 0 0 0 0 0 0 0 0 0 0 0 0 0 0 0 0 0 0 0 0 0 0 0 0 0 0 0 0 0 0 0 0
Wind_Speed
3 3 2 4 6 6 7 7 8 8 8 10 7 5 5 5 5 5 6 6 6 6 6 6 6 7 7 7 7 6 5 4 4 5 4 4 4 4 4 4 4 4 3 3
2 2 3 6 8 8 9 7 8 8 12 8 4 3 4 5 5 6 6 6 6 7 7 7 7 7 8 7 7 6 5 4 4 4 4 4 4 4 3 3 3 2 2 3
2 3 3 8 8 9 6 5 6 9 9 3 4 5 5 5 5 6 6 6 7 7 7 7 7 7 7 7 7 5 5 4 4 4 4 4 4 3 3 3 2 1 1 2
0 2 6 7 1 4 5 4 6 6 5 4 6 6 5 5 4 6 6 6 7 6 7 7 7 7 7 6 5 4 4 4 4 4 4 3 3 2 2 2 2 1 0 0
2 2 9 6 2 4 4 6 5 7 7 5 5 5 5 3 3 5 6 5 6 6 6 6 6 6 6 6 4 4 5 5 4 3 3 3 2 2 2 1 1 1 0 0
3 3 7 5 1 2 3 5 4 5 5 3 2 3 6 4 4 5 5 4 5 5 5 6 6 5 5 6 5 5 5 5 4 3 2 2 2 2 2 1 0 0 1 1
4 5 10 5 2 3 3 7 2 4 4 3 4 6 6 6 5 5 5 5 5 5 5 5 6 5 5 5 5 5 5 4 4 3 2 2 1 1 1 0 1 1 1 1
5 5 11 3 5 7 7 2 1 3 3 4 5 6 6 6 6 6 6 5 5 5 6 5 5 4 6 6 6 5 5 4 3 2 2 1 1 1 1 1 2 1 2 2
10 9 4 4 6 4 2 2 3 3 3 3 4 5 6 6 6 6 6 5 5 5 6 5 4 4 5 6 6 5 4 4 3 3 1 1 1 1 1 1 1 1 2 2
5 8 6 6 5 4 3 4 4 3 3 3 5 6 6 6 6 5 5 5 5 5 5 6 5 5 5 5 5 4 4 3 3 2 2 2 2 1 1 1 1 1 2 1
7 7 5 6 8 7 5 4 4 4 3 4 5 6 6 6 6 5 5 5 4 4 5 6 5 5 5 4 3 3 3 3 3 2 2 2 2 2 2 1 1 1 1 1
9 7 6 6 4 4 5 5 5 4 4 4 5 6 5 6 5 5 5 4 4 5 5 5 5 5 5 4 3 2 2 2 2 2 2 2 2 3 4 3 4 4 4 3
6 4 5 5 4 3 4 5 4 5 5 5 5 5 5 5 5 4 4 4 5 5 5 5 4 5 5 3 3 2 2 2 1 1 1 1 1 1 2 4 5 5 5 5
5 3 4 5 5 4 3 3 3 3 4 4 4 4 4 4 4 5 5 5 5 5 4 4 4 5 4 3 2 2 2 2 1 1 1 1 1 1 1 2 2 3 4 5
6 6 6 4 3 3 2 2 2 3 4 4 3 4 4 4 5 6 5 4 4 3 3 3 4 5 4 2 2 2 1 1 1 1 1 1 1 1 2 2 2 2 2 2
3 3 4 4 5 4 3 3 4 5 4 4 4 4 4 4 5 5 4 3 2 3 4 3 4 4 3 2 1 1 1 1 1 1 1 1 1 1 1 1 1 1 1 1
3 4 4 5 6 5 5 5 5 5 5 5 5 4 3 3 4 4 4 3 3 4 3 3 4 3 2 1 0 1 1 1 1 1 1 1 1 1 1 1 1 1 0 1
7 7 6 5 5 5 5 5 4 5 5 5 3 3 3 3 4 5 4 3 3 3 3 3 3 2 2 1 0 0 0 0 0 0 0 1 1 1 1 1 1 1 1 1
5 5 5 5 5 5 5 4 4 4 3 2 2 3 4 4 4 4 3 2 2 4 4 3 4 2 1 1 1 0 0 0 0 1 0 0 1 1 1 1 1 1 1 1
4 4 4 4 3 3 3 3 3 2 2 2 2 3 3 3 3 2 2 3 3 3 3 3 2 1 1 1 0 0 1 1 1 1 1 0 0 0 0 1 1 1 1 1
4 3 3 3 3 3 3 3 2 3 3 3 3 3 4 3 2 2 2 3 3 2 2 2 1 1 1 0 0 1 1 1 1 1 0 0 0 0 0 0 0 0 0 0
3 3 3 3 2 2 2 2 3 3 3 3 3 3 2 2 2 2 3 3 3 3 1 1 1 1 1 1 1 1 1 1 1 1 0 0 0 1 0 0 0 0 0 0
3 3 3 3 3 2 2 2 3 3 3 3 3 3 3 3 2 2 3 2 2 2 1 1 1 1 2 2 1 1 1 1 1 0 0 0 0 0 0 0 0 0 0 0
3 3 3 2 2 2 3 3 2 2 3 3 3 3 3 2 2 2 2 3 2 2 1 1 1 1 2 1 1 1 1 1 0 0 0 0 0 0 0 0 0 0 0 0
3 3 2 3 3 3 3 2 1 2 2 2 2 2 2 2 2 2 1 2 2 1 1 1 1 1 1 1 1 1 0 0 0 0 0 0 0 0 0 0 0 0 0 1
3 3 3 3 3 3 2 2 2 2 2 2 2 2 2 1 1 1 1 1 1 1 0 0 0 0 0 1 1 0 0 0 0 0 0 0 0 0 0 1 1 1 1 1
2 2 1 1 2 2 2 3 3 3 3 3 2 2 2 1 1 1 1 1 1 0 0 0 0 0 0 0 0 0 0 0 0 0 0 0 0 1 1 1 1 1 1 1
Wind_Direction
266 283 238 239 235 210 207 208 216 243 251 270 269 268 279 292 301 308 311 314 312 309 309 312 316 317 313 311 310 307 300 287 282 282 280 277 278 277 274 276 282 266 246 233
297 297 260 265 249 228 232 230 238 262 272 271 281 283 285 288 293 298 299 302 305 308 311 312 312 312 311 311 311 309 303 291 293 292 291 290 285 282 278 285 293 274 241 230
276 313 332 274 236 207 206 208 196 227 249 296 300 287 278 279 282 282 289 295 300 301 302 303 304 303 303 301 303 302 299 296 297 299 302 300 295 289 287 293 293 281 261 239
282 21 249 249 186 178 192 234 220 241 268 277 276 285 271 255 254 274 286 292 295 297 301 304 306 309 310 308 306 303 304 303 303 308 304 304 301 296 296 293 281 274 285 291
142 251 279 287 224 172 186 264 225 228 258 282 311 316 290 247 247 264 274 281 288 294 298 303 307 313 316 315 312 309 308 305 303 300 299 302 300 304 312 301 300 351 4 88
149 205 248 257 204 177 116 284 244 205 239 271 3 315 289 312 300 290 293 296 299 304 306 305 310 318 322 320 319 308 309 303 299 296 294 291 293 309 316 295 292 67 59 70
187 230 263 253 192 130 168 250 254 202 221 207 213 236 279 307 306 301 297 298 304 307 305 303 313 323 320 316 310 308 310 307 311 309 295 292 325 339 349 49 87 107 97 72
168 209 253 187 144 185 218 244 223 227 221 225 249 274 290 298 302 305 306 305 307 306 305 309 317 322 318 311 311 319 322 320 325 328 329 4 28 14 43 77 88 91 91 66
196 217 246 183 206 225 211 241 245 236 246 240 266 279 288 292 293 296 297 298 299 298 303 310 312 311 303 305 318 325 326 327 330 335 350 31 49 47 49 72 90 85 90 83
250 260 253 245 248 253 236 237 247 248 254 245 260 275 284 288 291 293 296 295 299 301 302 305 308 306 296 306 319 325 326 329 345 5 21 32 30 40 57 71 85 87 89 87
251 267 286 261 236 241 249 250 258 261 252 243 250 270 276 282 285 286 289 292 291 289 288 293 304 305 305 315 328 335 341 350 359 10 35 39 34 34 40 30 52 83 103 114
227 222 212 248 241 226 227 241 243 253 272 264 246 260 272 276 278 281 285 291 294 293 293 297 304 305 311 322 330 339 340 344 353 6 28 47 57 46 45 51 46 57 66 69
230 234 228 256 261 230 231 244 243 239 247 263 264 256 263 271 276 279 284 288 286 286 288 295 304 307 313 319 325 329 333 344 356 6 23 38 61 77 59 46 50 58 61 68
234 231 260 251 251 254 249 254 248 257 254 252 259 264 265 273 282 282 281 281 283 287 293 300 305 305 311 319 327 329 339 351 3 11 19 28 44 58 69 71 54 46 50 63
234 222 234 256 268 269 260 254 262 269 271 274 265 262 263 267 273 276 280 289 293 296 301 306 305 305 318 323 329 335 347 348 353 22 40 53 58 62 70 75 73 61 45 44
243 239 236 244 251 255 253 251 254 263 267 270 271 268 266 266 273 281 286 285 286 289 293 296 294 302 315 319 324 330 334 345 11 41 59 63 71 79 86 96 99 96 79 54
200 239 240 250 250 247 243 243 246 257 263 263 265 272 279 284 288 290 288 278 267 270 279 281 289 307 313 310 287 304 335 338 12 42 48 56 80 95 111 119 124 117 104 111
221 230 229 233 240 246 252 247 245 250 254 259 267 272 271 269 273 281 287 295 298 301 300 292 299 311 310 317 305 322 49 51 54 69 65 61 78 104 116 121 124 117 80 87
227 235 240 239 236 232 238 243 244 244 248 246 247 256 260 261 265 277 287 295 299 300 305 308 315 328 316 311 357 93 106 101 86 60 69 115 68 69 90 103 104 108 109 101
236 234 235 242 238 228 234 240 237 241 240 227 236 254 267 268 267 269 266 261 261 274 289 299 296 293 295 301 14 121 143 147 139 111 90 93 96 87 94 99 101 101 96 104
240 235 231 235 245 245 234 222 217 232 237 223 226 242 255 267 262 247 246 272 286 298 301 310 323 307 296 338 121 92 105 113 126 146 161 167 153 151 149 133 132 144 138 123
229 223 227 226 226 247 246 224 217 224 230 233 238 243 254 267 267 257 242 249 275 301 314 294 289 309 16 79 90 96 98 99 93 93 119 154 172 194 213 200 196 211 173 157
233 224 222 221 220 228 241 231 221 218 223 227 230 234 240 246 238 236 267 271 272 282 290 271 293 327 90 99 97 109 108 102 104 107 110 120 150 166 170 191 212 188 168 162
227 220 220 214 188 200 231 240 229 228 229 235 233 229 225 238 256 244 248 273 284 280 266 287 323 76 106 104 108 101 98 105 119 119 95 80 70 86 143 181 220 241 209 193
219 213 202 189 202 222 230 225 216 226 228 246 254 246 230 217 226 248 252 251 261 249 271 309 18 87 109 116 125 132 148 207 161 122 101 100 79 351 301 282 268 279 262 235
216 215 215 215 215 212 201 193 209 220 214 233 253 247 239 232 227 233 235 239 243 225 184 258 258 156 117 114 129 145 166 263 308 335 251 220 205 260 281 275 263 252 256 258
214 211 209 227 225 207 201 201 208 217 213 213 232 236 221 212 205 212 214 213 204 190 168 151 170 159 134 123 114 116 190 228 246 269 258 254 256 251 254 261 265 261 258 252